Time,TemperatureF,DewpointF,PressureIn,WindDirection,WindDirectionDegrees,WindSpeedMPH,WindSpeedGustMPH,Humidity,HourlyPrecipIn,Conditions,Clouds,dailyrainin,SoftwareType,DateUTC
2013-01-20 00:03:00,5.4,-2.0,29.97,NNW,348,13.1,13.1,71,0.00,,---,0.00,VWS V14.00,2013-01-20 06:03:00,
2013-01-20 00:08:00,5.4,-2.0,29.97,North,357,13.1,13.1,71,0.00,,---,0.00,VWS V14.00,2013-01-20 06:08:00,
2013-01-20 00:13:00,5.4,-2.0,29.97,NNW,342,10.3,10.3,71,0.00,,---,0.00,VWS V14.00,2013-01-20 06:13:00,
2013-01-20 00:18:00,5.4,-2.0,29.97,NW,320,6.7,6.7,71,0.00,,---,0.00,VWS V14.00,2013-01-20 06:18:00,
2013-01-20 00:23:00,5.4,-2.0,29.97,WNW,287,10.1,10.1,71,0.00,,---,0.00,VWS V14.00,2013-01-20 06:23:00,
2013-01-20 00:28:00,5.4,-2.0,29.97,North,357,7.8,7.8,71,0.00,,---,0.00,VWS V14.00,2013-01-20 06:28:00,
2013-01-20 00:34:00,5.4,-2.0,30.00,North,353,10.3,10.3,71,0.00,,---,0.00,VWS V14.00,2013-01-20 06:34:00,
2013-01-20 00:39:00,5.2,-2.2,30.00,North,349,8.9,8.9,71,0.00,,---,0.00,VWS V14.00,2013-01-20 06:39:00,
2013-01-20 00:44:00,5.0,-2.3,30.00,NNW,329,7.8,7.8,71,0.00,,---,0.00,VWS V14.00,2013-01-20 06:44:00,
2013-01-20 00:49:00,5.0,-2.3,30.00,North,353,10.1,10.1,71,0.00,,---,0.00,VWS V14.00,2013-01-20 06:49:00,
2013-01-20 00:54:00,5.0,-2.3,30.00,NNW,343,10.1,10.1,71,0.00,,---,0.00,VWS V14.00,2013-01-20 06:54:00,
2013-01-20 00:59:00,5.0,-2.3,30.00,North,357,5.0,5.0,71,0.00,,---,0.00,VWS V14.00,2013-01-20 06:59:00,
2013-01-20 01:04:00,4.8,-2.5,30.03,North,9,13.7,13.7,71,0.00,,---,0.00,VWS V14.00,2013-01-20 07:04:00,
2013-01-20 01:09:00,4.8,-2.5,30.03,North,353,13.1,13.1,71,0.00,,---,0.00,VWS V14.00,2013-01-20 07:09:00,
2013-01-20 01:14:00,4.6,-2.7,30.03,North,349,7.8,7.8,71,0.00,,---,0.00,VWS V14.00,2013-01-20 07:14:00,
2013-01-20 01:19:00,4.6,-2.7,30.03,NNW,339,15.9,15.9,71,0.00,,---,0.00,VWS V14.00,2013-01-20 07:19:00,
2013-01-20 01:24:00,4.5,-2.8,30.03,WNW,282,14.8,14.8,71,0.00,,---,0.00,VWS V14.00,2013-01-20 07:24:00,
2013-01-20 01:29:00,4.5,-2.8,30.03,West,273,4.5,4.5,71,0.00,,---,0.00,VWS V14.00,2013-01-20 07:29:00,
2013-01-20 01:34:00,4.1,-3.2,30.03,NNW,343,7.3,7.3,71,0.00,,---,0.00,VWS V14.00,2013-01-20 07:34:00,
2013-01-20 01:39:00,4.1,-3.2,30.03,NNW,338,13.7,13.7,71,0.00,,---,0.00,VWS V14.00,2013-01-20 07:39:00,
2013-01-20 01:44:00,4.1,-3.2,30.03,NNE,12,10.3,10.3,71,0.00,,---,0.00,VWS V14.00,2013-01-20 07:44:00,
2013-01-20 01:49:00,3.9,-3.4,30.03,NW,315,13.1,13.1,71,0.00,,---,0.00,VWS V14.00,2013-01-20 07:49:00,
2013-01-20 01:54:00,3.9,-3.4,30.03,NNE,17,5.0,5.0,71,0.00,,---,0.00,VWS V14.00,2013-01-20 07:54:00,
2013-01-20 01:59:00,3.7,-3.5,30.03,NNW,348,15.4,15.4,71,0.00,,---,0.00,VWS V14.00,2013-01-20 07:59:00,
2013-01-20 02:04:00,3.7,-3.5,30.06,NW,308,10.1,10.1,71,0.00,,---,0.00,VWS V14.00,2013-01-20 08:04:00,
2013-01-20 02:09:00,3.7,-3.5,30.06,North,0,4.5,4.5,71,0.00,,---,0.00,VWS V14.00,2013-01-20 08:09:00,
2013-01-20 02:14:00,3.7,-3.5,30.06,NNE,18,13.1,13.1,71,0.00,,---,0.00,VWS V14.00,2013-01-20 08:14:00,
2013-01-20 02:19:00,3.6,-3.7,30.06,North,1,18.7,18.7,71,0.00,,---,0.00,VWS V14.00,2013-01-20 08:19:00,
2013-01-20 02:24:00,3.6,-3.7,30.06,WNW,298,7.8,7.8,71,0.00,,---,0.00,VWS V14.00,2013-01-20 08:24:00,
2013-01-20 02:29:00,3.6,-3.7,30.06,NNW,340,13.1,13.1,71,0.00,,---,0.00,VWS V14.00,2013-01-20 08:29:00,
2013-01-20 02:34:00,3.4,-3.9,30.06,North,357,7.3,7.3,71,0.00,,---,0.00,VWS V14.00,2013-01-20 08:34:00,
2013-01-20 02:39:00,3.4,-3.9,30.06,NNW,330,5.0,5.0,71,0.00,,---,0.00,VWS V14.00,2013-01-20 08:39:00,
2013-01-20 02:44:00,3.4,-3.9,30.06,NNW,334,3.9,3.9,71,0.00,,---,0.00,VWS V14.00,2013-01-20 08:44:00,
2013-01-20 02:49:00,3.2,-4.1,30.09,North,350,19.3,19.3,71,0.00,,---,0.00,VWS V14.00,2013-01-20 08:49:00,
2013-01-20 02:54:00,3.2,-4.1,30.09,North,0,10.1,10.1,71,0.00,,---,0.00,VWS V14.00,2013-01-20 08:54:00,
2013-01-20 02:59:00,3.2,-4.1,30.09,WNW,286,10.3,10.3,71,0.00,,---,0.00,VWS V14.00,2013-01-20 08:59:00,
2013-01-20 03:04:00,3.2,-4.1,30.09,North,353,5.6,5.6,71,0.00,,---,0.00,VWS V14.00,2013-01-20 09:04:00,
2013-01-20 03:09:00,3.2,-4.1,30.09,NW,313,2.8,2.8,71,0.00,,---,0.00,VWS V14.00,2013-01-20 09:09:00,
2013-01-20 03:14:00,3.0,-4.2,30.09,NNW,338,6.2,6.2,71,0.00,,---,0.00,VWS V14.00,2013-01-20 09:14:00,
2013-01-20 03:19:00,3.0,-4.2,30.09,NNE,14,2.8,2.8,71,0.00,,---,0.00,VWS V14.00,2013-01-20 09:19:00,
2013-01-20 03:24:00,2.8,-4.4,30.09,NNW,336,5.0,5.0,71,0.00,,---,0.00,VWS V14.00,2013-01-20 09:24:00,
2013-01-20 03:29:00,2.8,-4.4,30.09,WNW,284,12.6,12.6,71,0.00,,---,0.00,VWS V14.00,2013-01-20 09:29:00,
2013-01-20 03:34:00,2.7,-4.6,30.12,NW,312,3.9,3.9,71,0.00,,---,0.00,VWS V14.00,2013-01-20 09:34:00,
2013-01-20 03:39:00,2.7,-4.6,30.12,NNW,341,6.7,6.7,71,0.00,,---,0.00,VWS V14.00,2013-01-20 09:39:00,
2013-01-20 03:44:00,2.5,-4.8,30.12,NW,316,13.7,13.7,71,0.00,,---,0.00,VWS V14.00,2013-01-20 09:44:00,
2013-01-20 03:49:00,2.5,-4.8,30.12,NNE,14,9.5,9.5,71,0.00,,---,0.00,VWS V14.00,2013-01-20 09:49:00,
2013-01-20 03:54:00,2.5,-4.8,30.12,NNE,19,6.2,6.2,71,0.00,,---,0.00,VWS V14.00,2013-01-20 09:54:00,
2013-01-20 03:59:00,2.5,-4.8,30.12,North,357,10.1,10.1,71,0.00,,---,0.00,VWS V14.00,2013-01-20 09:59:00,
2013-01-20 04:05:00,2.5,-4.8,30.12,North,353,7.3,7.3,71,0.00,,---,0.00,VWS V14.00,2013-01-20 10:05:00,
2013-01-20 04:10:00,2.5,-4.8,30.12,NNW,327,3.4,3.4,71,0.00,,---,0.00,VWS V14.00,2013-01-20 10:10:00,
2013-01-20 04:15:00,2.5,-4.8,30.12,NNW,341,9.5,9.5,71,0.00,,---,0.00,VWS V14.00,2013-01-20 10:15:00,
2013-01-20 04:20:00,2.3,-4.9,30.12,North,353,10.3,10.3,71,0.00,,---,0.00,VWS V14.00,2013-01-20 10:20:00,
2013-01-20 04:25:00,2.1,-5.1,30.12,NW,324,3.9,3.9,71,0.00,,---,0.00,VWS V14.00,2013-01-20 10:25:00,
2013-01-20 04:30:00,2.1,-5.1,30.12,NNE,18,7.3,7.3,71,0.00,,---,0.00,VWS V14.00,2013-01-20 10:30:00,
2013-01-20 04:35:00,1.9,-5.3,30.12,North,9,9.5,9.5,71,0.00,,---,0.00,VWS V14.00,2013-01-20 10:35:00,
2013-01-20 04:40:00,1.9,-5.3,30.12,SW,221,5.0,5.0,71,0.00,,---,0.00,VWS V14.00,2013-01-20 10:40:00,
2013-01-20 04:45:00,1.9,-5.3,30.12,NNW,336,0.0,0.0,71,0.00,,---,0.00,VWS V14.00,2013-01-20 10:45:00,
2013-01-20 04:50:00,1.9,-5.3,30.12,NNW,339,2.8,2.8,71,0.00,,---,0.00,VWS V14.00,2013-01-20 10:50:00,
2013-01-20 04:55:00,1.9,-5.3,30.12,NNW,337,4.5,4.5,71,0.00,,---,0.00,VWS V14.00,2013-01-20 10:55:00,
2013-01-20 05:00:00,1.9,-5.3,30.12,North,353,4.5,4.5,71,0.00,,---,0.00,VWS V14.00,2013-01-20 11:00:00,
2013-01-20 05:05:00,1.8,-5.5,30.12,NNW,330,12.6,12.6,71,0.00,,---,0.00,VWS V14.00,2013-01-20 11:05:00,
2013-01-20 05:10:00,1.8,-5.5,30.12,NNW,348,7.8,7.8,71,0.00,,---,0.00,VWS V14.00,2013-01-20 11:10:00,
2013-01-20 05:15:00,1.8,-5.5,30.12,NNE,13,17.1,17.1,71,0.00,,---,0.00,VWS V14.00,2013-01-20 11:15:00,
2013-01-20 05:20:00,1.6,-5.6,30.12,North,0,6.2,6.2,71,0.00,,---,0.00,VWS V14.00,2013-01-20 11:20:00,
2013-01-20 05:25:00,1.6,-5.6,30.12,WNW,285,7.8,7.8,71,0.00,,---,0.00,VWS V14.00,2013-01-20 11:25:00,
2013-01-20 05:30:00,1.6,-5.6,30.12,North,9,7.8,7.8,71,0.00,,---,0.00,VWS V14.00,2013-01-20 11:30:00,
2013-01-20 05:35:00,1.6,-5.6,30.15,North,357,9.5,9.5,71,0.00,,---,0.00,VWS V14.00,2013-01-20 11:35:00,
2013-01-20 05:40:00,1.6,-5.6,30.15,North,0,7.3,7.3,71,0.00,,---,0.00,VWS V14.00,2013-01-20 11:40:00,
2013-01-20 05:45:00,1.4,-5.8,30.15,WNW,302,8.9,8.9,71,0.00,,---,0.00,VWS V14.00,2013-01-20 11:45:00,
2013-01-20 05:50:00,1.6,-5.6,30.15,NNW,341,7.8,7.8,71,0.00,,---,0.00,VWS V14.00,2013-01-20 11:50:00,
2013-01-20 05:55:00,1.4,-5.8,30.15,NNW,332,4.5,4.5,71,0.00,,---,0.00,VWS V14.00,2013-01-20 11:55:00,
2013-01-20 06:00:00,1.0,-6.2,30.15,NNW,341,3.4,3.4,71,0.00,,---,0.00,VWS V14.00,2013-01-20 12:00:00,
2013-01-20 06:05:00,0.7,-6.5,30.15,North,357,6.2,6.2,71,0.00,,---,0.00,VWS V14.00,2013-01-20 12:05:00,
2013-01-20 06:10:00,0.3,-6.8,30.15,WNW,301,6.2,6.2,71,0.00,,---,0.00,VWS V14.00,2013-01-20 12:10:00,
2013-01-20 06:15:00,0.0,-7.2,30.15,NW,321,5.0,5.0,71,0.00,,---,0.00,VWS V14.00,2013-01-20 12:15:00,
2013-01-20 06:20:00,-0.2,-7.4,30.15,North,353,3.9,3.9,71,0.00,,---,0.00,VWS V14.00,2013-01-20 12:20:00,
2013-01-20 06:25:00,-0.6,-7.7,30.15,West,271,7.8,7.8,71,0.00,,---,0.00,VWS V14.00,2013-01-20 12:25:00,
2013-01-20 06:30:00,-0.8,-7.9,30.15,NE,44,7.3,7.3,71,0.00,,---,0.00,VWS V14.00,2013-01-20 12:30:00,
2013-01-20 06:35:00,-0.9,-8.1,30.18,North,4,7.3,7.3,71,0.00,,---,0.00,VWS V14.00,2013-01-20 12:35:00,
2013-01-20 06:40:00,-1.3,-8.4,30.18,North,10,5.0,5.0,71,0.00,,---,0.00,VWS V14.00,2013-01-20 12:40:00,
2013-01-20 06:45:00,-1.3,-8.4,30.18,NNW,346,0.0,0.0,71,0.00,,---,0.00,VWS V14.00,2013-01-20 12:45:00,
2013-01-20 06:50:00,-1.5,-8.6,30.18,WNW,294,3.4,3.4,71,0.00,,---,0.00,VWS V14.00,2013-01-20 12:50:00,
2013-01-20 06:55:00,-1.8,-8.9,30.18,North,7,0.0,0.0,71,0.00,,---,0.00,VWS V14.00,2013-01-20 12:55:00,
2013-01-20 07:00:00,-2.0,-9.1,30.18,NW,318,7.8,7.8,71,0.00,,---,0.00,VWS V14.00,2013-01-20 13:00:00,
2013-01-20 07:05:00,-2.2,-9.3,30.18,NNW,345,6.7,6.7,71,0.00,,---,0.00,VWS V14.00,2013-01-20 13:05:00,
2013-01-20 07:10:00,-2.4,-9.4,30.18,NNW,331,0.0,0.0,71,0.00,,---,0.00,VWS V14.00,2013-01-20 13:10:00,
2013-01-20 07:15:00,-2.4,-9.4,30.18,NNE,31,6.2,6.2,71,0.00,,---,0.00,VWS V14.00,2013-01-20 13:15:00,
2013-01-20 07:20:00,-2.4,-9.4,30.18,NW,323,3.4,3.4,71,0.00,,---,0.00,VWS V14.00,2013-01-20 13:20:00,
2013-01-20 07:25:00,-2.4,-9.4,30.18,NE,56,3.4,3.4,71,0.00,,---,0.00,VWS V14.00,2013-01-20 13:25:00,
2013-01-20 07:30:00,-2.6,-9.6,30.18,NNE,32,3.9,3.9,71,0.00,,---,0.00,VWS V14.00,2013-01-20 13:30:00,
2013-01-20 07:35:00,-2.6,-9.6,30.18,ENE,74,2.8,2.8,71,0.00,,---,0.00,VWS V14.00,2013-01-20 13:35:00,
2013-01-20 07:40:00,-2.6,-9.6,30.18,NW,324,5.0,5.0,71,0.00,,---,0.00,VWS V14.00,2013-01-20 13:40:00,
2013-01-20 07:45:00,-2.6,-9.6,30.18,WSW,251,4.5,4.5,71,0.00,,---,0.00,VWS V14.00,2013-01-20 13:45:00,
2013-01-20 07:50:00,-2.6,-9.6,30.21,WSW,247,3.9,3.9,71,0.00,,---,0.00,VWS V14.00,2013-01-20 13:50:00,
2013-01-20 07:55:00,-2.7,-9.8,30.21,North,0,5.0,5.0,71,0.00,,---,0.00,VWS V14.00,2013-01-20 13:55:00,
2013-01-20 08:01:00,-2.9,-10.0,30.21,NW,322,5.0,5.0,71,0.00,,---,0.00,VWS V14.00,2013-01-20 14:01:00,
2013-01-20 08:06:00,-3.1,-10.1,30.21,NNW,337,3.9,3.9,71,0.00,,---,0.00,VWS V14.00,2013-01-20 14:06:00,
2013-01-20 08:11:00,-3.1,-10.1,30.21,SW,225,3.4,3.4,71,0.00,,---,0.00,VWS V14.00,2013-01-20 14:11:00,
2013-01-20 08:15:00,-3.1,-10.1,30.21,West,267,3.9,3.9,71,0.00,,---,0.00,VWS V14.00,2013-01-20 14:15:00,
2013-01-20 08:21:00,-3.1,-10.1,30.21,SSW,195,3.9,3.9,71,0.00,,---,0.00,VWS V14.00,2013-01-20 14:21:00,
2013-01-20 08:26:00,-3.1,-10.1,30.21,WNW,289,5.0,5.0,71,0.00,,---,0.00,VWS V14.00,2013-01-20 14:26:00,
2013-01-20 08:31:00,-3.1,-10.1,30.21,NW,322,2.8,2.8,71,0.00,,---,0.00,VWS V14.00,2013-01-20 14:31:00,
2013-01-20 08:36:00,-3.1,-10.1,30.21,South,170,3.4,3.4,71,0.00,,---,0.00,VWS V14.00,2013-01-20 14:36:00,
2013-01-20 08:41:00,-3.1,-10.1,30.21,NNW,340,3.4,3.4,71,0.00,,---,0.00,VWS V14.00,2013-01-20 14:41:00,
2013-01-20 08:46:00,-3.1,-10.1,30.21,NNW,335,3.9,3.9,71,0.00,,---,0.00,VWS V14.00,2013-01-20 14:46:00,
2013-01-20 08:51:00,-2.9,-10.0,30.21,West,279,0.0,0.0,71,0.00,,---,0.00,VWS V14.00,2013-01-20 14:51:00,
2013-01-20 08:56:00,-2.7,-9.8,30.21,WNW,291,3.4,3.4,71,0.00,,---,0.00,VWS V14.00,2013-01-20 14:56:00,
2013-01-20 09:01:00,-2.6,-9.6,30.21,NNE,20,4.5,4.5,71,0.00,,---,0.00,VWS V14.00,2013-01-20 15:01:00,
2013-01-20 09:06:00,-2.4,-9.4,30.21,SSE,156,0.0,0.0,71,0.00,,---,0.00,VWS V14.00,2013-01-20 15:06:00,
2013-01-20 09:11:00,-2.2,-9.3,30.21,WNW,303,2.8,2.8,71,0.00,,---,0.00,VWS V14.00,2013-01-20 15:11:00,
2013-01-20 09:16:00,-1.8,-8.9,30.21,NNW,341,3.9,3.9,71,0.00,,---,0.00,VWS V14.00,2013-01-20 15:16:00,
2013-01-20 09:21:00,-1.7,-8.8,30.21,NNW,327,6.2,6.2,71,0.00,,---,0.00,VWS V14.00,2013-01-20 15:21:00,
2013-01-20 09:26:00,-1.3,-8.4,30.21,West,275,3.4,3.4,71,0.00,,---,0.00,VWS V14.00,2013-01-20 15:26:00,
2013-01-20 09:31:00,-1.1,-8.2,30.21,NNW,336,0.0,0.0,71,0.00,,---,0.00,VWS V14.00,2013-01-20 15:31:00,
2013-01-20 09:36:00,-0.9,-8.1,30.21,NNW,328,2.8,2.8,71,0.00,,---,0.00,VWS V14.00,2013-01-20 15:36:00,
2013-01-20 09:41:00,-0.8,-7.9,30.21,NNE,29,7.3,7.3,71,0.00,,---,0.00,VWS V14.00,2013-01-20 15:41:00,
2013-01-20 09:46:00,-0.6,-7.7,30.21,SSE,165,4.5,4.5,71,0.00,,---,0.00,VWS V14.00,2013-01-20 15:46:00,
2013-01-20 09:51:00,-0.6,-7.7,30.21,NNW,332,6.7,6.7,71,0.00,,---,0.00,VWS V14.00,2013-01-20 15:51:00,
2013-01-20 09:56:00,-0.6,-7.7,30.21,North,353,4.5,4.5,71,0.00,,---,0.00,VWS V14.00,2013-01-20 15:56:00,
2013-01-20 10:01:00,-0.4,-7.5,30.21,North,0,7.3,7.3,71,0.00,,---,0.00,VWS V14.00,2013-01-20 16:01:00,
2013-01-20 10:06:00,-0.2,-7.4,30.21,North,3,4.5,4.5,71,0.00,,---,0.00,VWS V14.00,2013-01-20 16:06:00,
2013-01-20 10:11:00,0.0,-7.2,30.21,WNW,294,3.4,3.4,71,0.00,,---,0.00,VWS V14.00,2013-01-20 16:11:00,
2013-01-20 10:16:00,0.0,-7.2,30.21,West,278,3.4,3.4,71,0.00,,---,0.00,VWS V14.00,2013-01-20 16:16:00,
2013-01-20 10:21:00,0.0,-7.2,30.21,ENE,74,4.5,4.5,71,0.00,,---,0.00,VWS V14.00,2013-01-20 16:21:00,
2013-01-20 10:26:00,0.3,-6.8,30.21,NW,315,0.0,0.0,71,0.00,,---,0.00,VWS V14.00,2013-01-20 16:26:00,
2013-01-20 10:31:00,0.3,-6.8,30.21,North,0,7.3,7.3,71,0.00,,---,0.00,VWS V14.00,2013-01-20 16:31:00,
2013-01-20 10:36:00,0.3,-6.8,30.21,NE,41,3.4,3.4,71,0.00,,---,0.00,VWS V14.00,2013-01-20 16:36:00,
2013-01-20 10:41:00,0.7,-6.5,30.21,NE,39,6.2,6.2,71,0.00,,---,0.00,VWS V14.00,2013-01-20 16:41:00,
2013-01-20 10:46:00,0.7,-6.5,30.21,North,357,3.4,3.4,71,0.00,,---,0.00,VWS V14.00,2013-01-20 16:46:00,
2013-01-20 10:52:00,0.7,-6.5,30.21,NW,310,4.5,4.5,71,0.00,,---,0.00,VWS V14.00,2013-01-20 16:52:00,
2013-01-20 10:57:00,1.0,-6.2,30.21,WNW,291,3.4,3.4,71,0.00,,---,0.00,VWS V14.00,2013-01-20 16:57:00,
2013-01-20 11:02:00,1.4,-5.8,30.21,West,270,5.0,5.0,71,0.00,,---,0.00,VWS V14.00,2013-01-20 17:02:00,
2013-01-20 11:07:00,1.6,-5.6,30.21,NNW,339,3.9,3.9,71,0.00,,---,0.00,VWS V14.00,2013-01-20 17:07:00,
2013-01-20 11:12:00,1.9,-5.3,30.21,NNW,329,5.6,5.6,71,0.00,,---,0.00,VWS V14.00,2013-01-20 17:12:00,
2013-01-20 11:17:00,1.9,-5.3,30.21,SSE,155,2.8,2.8,71,0.00,,---,0.00,VWS V14.00,2013-01-20 17:17:00,
2013-01-20 11:22:00,1.9,-5.3,30.21,WNW,293,4.5,4.5,71,0.00,,---,0.00,VWS V14.00,2013-01-20 17:22:00,
2013-01-20 11:27:00,1.9,-5.3,30.21,NNW,331,5.0,5.0,71,0.00,,---,0.00,VWS V14.00,2013-01-20 17:27:00,
2013-01-20 11:32:00,2.1,-5.1,30.21,NNW,342,3.4,3.4,71,0.00,,---,0.00,VWS V14.00,2013-01-20 17:32:00,
2013-01-20 11:37:00,2.3,-4.9,30.21,NW,307,6.7,6.7,71,0.00,,---,0.00,VWS V14.00,2013-01-20 17:37:00,
2013-01-20 11:42:00,2.5,-4.8,30.21,NNW,329,7.8,7.8,71,0.00,,---,0.00,VWS V14.00,2013-01-20 17:42:00,
2013-01-20 11:47:00,2.1,-5.1,30.21,WNW,302,5.0,5.0,71,0.00,,---,0.00,VWS V14.00,2013-01-20 17:47:00,
2013-01-20 11:52:00,1.9,-5.3,30.21,NNW,327,2.8,2.8,71,0.00,,---,0.00,VWS V14.00,2013-01-20 17:52:00,
2013-01-20 11:57:00,1.9,-5.3,30.21,North,357,0.0,0.0,71,0.00,,---,0.00,VWS V14.00,2013-01-20 17:57:00,
2013-01-20 12:02:00,2.1,-5.1,30.21,SW,219,0.0,0.0,71,0.00,,---,0.00,VWS V14.00,2013-01-20 18:02:00,
2013-01-20 12:07:00,2.3,-4.9,30.21,North,3,3.9,3.9,71,0.00,,---,0.00,VWS V14.00,2013-01-20 18:07:00,
2013-01-20 12:12:00,2.3,-4.9,30.21,NNE,18,5.0,5.0,71,0.00,,---,0.00,VWS V14.00,2013-01-20 18:12:00,
2013-01-20 12:17:00,2.1,-5.1,30.21,NNW,333,6.7,6.7,71,0.00,,---,0.00,VWS V14.00,2013-01-20 18:17:00,
2013-01-20 12:22:00,1.9,-5.3,30.21,NW,304,5.0,5.0,71,0.00,,---,0.00,VWS V14.00,2013-01-20 18:22:00,
2013-01-20 12:27:00,1.9,-5.3,30.21,NE,56,3.9,3.9,71,0.00,,---,0.00,VWS V14.00,2013-01-20 18:27:00,
2013-01-20 12:32:00,2.1,-5.1,30.21,North,357,7.3,7.3,71,0.00,,---,0.00,VWS V14.00,2013-01-20 18:32:00,
2013-01-20 12:37:00,2.3,-4.9,30.21,NNW,344,4.5,4.5,71,0.00,,---,0.00,VWS V14.00,2013-01-20 18:37:00,
2013-01-20 12:42:00,2.5,-4.8,30.21,NNW,345,6.7,6.7,71,0.00,,---,0.00,VWS V14.00,2013-01-20 18:42:00,
2013-01-20 12:47:00,2.7,-4.6,30.21,NNE,24,7.3,7.3,71,0.00,,---,0.00,VWS V14.00,2013-01-20 18:47:00,
2013-01-20 12:52:00,2.7,-4.6,30.21,NW,324,6.2,6.2,71,0.00,,---,0.00,VWS V14.00,2013-01-20 18:52:00,
2013-01-20 12:57:00,2.5,-4.8,30.21,East,92,4.5,4.5,71,0.00,,---,0.00,VWS V14.00,2013-01-20 18:57:00,
2013-01-20 13:02:00,2.5,-4.8,30.21,NNE,19,3.4,3.4,71,0.00,,---,0.00,VWS V14.00,2013-01-20 19:02:00,
2013-01-20 13:07:00,2.5,-4.8,30.21,North,8,3.4,3.4,71,0.00,,---,0.00,VWS V14.00,2013-01-20 19:07:00,
2013-01-20 13:12:00,2.5,-4.8,30.21,North,11,4.5,4.5,71,0.00,,---,0.00,VWS V14.00,2013-01-20 19:12:00,
2013-01-20 13:17:00,2.8,-4.4,30.21,NNW,341,4.5,4.5,71,0.00,,---,0.00,VWS V14.00,2013-01-20 19:17:00,
2013-01-20 13:22:00,2.8,-4.4,30.21,North,357,7.3,7.3,71,0.00,,---,0.00,VWS V14.00,2013-01-20 19:22:00,
2013-01-20 13:27:00,3.0,-4.2,30.21,WNW,289,2.8,2.8,71,0.00,,---,0.00,VWS V14.00,2013-01-20 19:27:00,
2013-01-20 13:32:00,3.2,-4.1,30.21,ENE,61,5.0,5.0,71,0.00,,---,0.00,VWS V14.00,2013-01-20 19:32:00,
2013-01-20 13:37:00,3.2,-4.1,30.21,West,276,4.5,4.5,71,0.00,,---,0.00,VWS V14.00,2013-01-20 19:37:00,
2013-01-20 13:42:00,2.8,-4.4,30.21,NW,315,8.9,8.9,71,0.00,,---,0.00,VWS V14.00,2013-01-20 19:42:00,
2013-01-20 13:47:00,2.8,-4.4,30.21,SW,225,4.5,4.5,71,0.00,,---,0.00,VWS V14.00,2013-01-20 19:47:00,
2013-01-20 13:52:00,2.5,-4.8,30.21,NE,37,3.4,3.4,71,0.00,,---,0.00,VWS V14.00,2013-01-20 19:52:00,
2013-01-20 13:57:00,2.5,-4.8,30.21,NW,325,2.8,2.8,71,0.00,,---,0.00,VWS V14.00,2013-01-20 19:57:00,
2013-01-20 14:02:00,2.5,-4.8,30.21,North,2,4.5,4.5,71,0.00,,---,0.00,VWS V14.00,2013-01-20 20:02:00,
2013-01-20 14:07:00,2.7,-4.6,30.21,WSW,250,3.9,3.9,71,0.00,,---,0.00,VWS V14.00,2013-01-20 20:07:00,
2013-01-20 14:12:00,2.5,-4.8,30.21,NW,311,3.9,3.9,71,0.00,,---,0.00,VWS V14.00,2013-01-20 20:12:00,
2013-01-20 14:18:00,2.5,-4.8,30.21,NW,319,3.9,3.9,71,0.00,,---,0.00,VWS V14.00,2013-01-20 20:18:00,
2013-01-20 14:22:00,2.5,-4.8,30.21,SW,222,3.4,3.4,71,0.00,,---,0.00,VWS V14.00,2013-01-20 20:22:00,
2013-01-20 14:28:00,2.5,-4.8,30.21,WSW,239,0.0,0.0,71,0.00,,---,0.00,VWS V14.00,2013-01-20 20:28:00,
2013-01-20 14:33:00,2.3,-4.9,30.18,West,264,4.5,4.5,71,0.00,,---,0.00,VWS V14.00,2013-01-20 20:33:00,
2013-01-20 14:38:00,2.3,-4.9,30.18,NNE,12,4.5,4.5,71,0.00,,---,0.00,VWS V14.00,2013-01-20 20:38:00,
2013-01-20 14:43:00,1.9,-5.3,30.18,NW,324,0.0,0.0,71,0.00,,---,0.00,VWS V14.00,2013-01-20 20:43:00,
2013-01-20 14:48:00,1.9,-5.3,30.21,NW,325,0.0,0.0,71,0.00,,---,0.00,VWS V14.00,2013-01-20 20:48:00,
2013-01-20 14:53:00,1.8,-5.5,30.21,NNW,337,0.0,0.0,71,0.00,,---,0.00,VWS V14.00,2013-01-20 20:53:00,
2013-01-20 14:58:00,1.8,-5.5,30.21,NE,36,3.9,3.9,71,0.00,,---,0.00,VWS V14.00,2013-01-20 20:58:00,
2013-01-20 15:03:00,1.6,-5.6,30.21,SSE,162,3.9,3.9,71,0.00,,---,0.00,VWS V14.00,2013-01-20 21:03:00,
2013-01-20 15:08:00,1.4,-5.8,30.21,WNW,297,2.8,2.8,71,0.00,,---,0.00,VWS V14.00,2013-01-20 21:08:00,
2013-01-20 15:13:00,1.6,-5.6,30.21,ESE,123,2.8,2.8,71,0.00,,---,0.00,VWS V14.00,2013-01-20 21:13:00,
2013-01-20 15:18:00,1.8,-5.5,30.21,NW,304,3.9,3.9,71,0.00,,---,0.00,VWS V14.00,2013-01-20 21:18:00,
2013-01-20 15:23:00,1.8,-5.5,30.21,NNW,345,3.9,3.9,71,0.00,,---,0.00,VWS V14.00,2013-01-20 21:23:00,
2013-01-20 15:28:00,1.6,-5.6,30.21,SW,219,3.4,3.4,71,0.00,,---,0.00,VWS V14.00,2013-01-20 21:28:00,
2013-01-20 15:33:00,1.2,-6.0,30.21,NW,316,4.5,4.5,71,0.00,,---,0.00,VWS V14.00,2013-01-20 21:33:00,
2013-01-20 15:38:00,1.2,-6.0,30.21,SW,227,0.0,0.0,71,0.00,,---,0.00,VWS V14.00,2013-01-20 21:38:00,
2013-01-20 15:43:00,0.9,-6.3,30.21,WNW,288,5.0,5.0,71,0.00,,---,0.00,VWS V14.00,2013-01-20 21:43:00,
2013-01-20 15:48:00,0.7,-6.5,30.18,ESE,116,3.4,3.4,71,0.00,,---,0.00,VWS V14.00,2013-01-20 21:48:00,
2013-01-20 15:53:00,0.7,-6.5,30.18,SW,214,0.0,0.0,71,0.00,,---,0.00,VWS V14.00,2013-01-20 21:53:00,
2013-01-20 15:58:00,0.5,-6.7,30.18,SSE,158,3.9,3.9,71,0.00,,---,0.00,VWS V14.00,2013-01-20 21:58:00,
2013-01-20 16:03:00,0.1,-7.0,30.21,West,279,2.8,2.8,71,0.00,,---,0.00,VWS V14.00,2013-01-20 22:03:00,
2013-01-20 16:08:00,0.0,-7.2,30.21,West,266,2.8,2.8,71,0.00,,---,0.00,VWS V14.00,2013-01-20 22:08:00,
2013-01-20 16:13:00,-0.4,-7.5,30.21,NNW,330,0.0,0.0,71,0.00,,---,0.00,VWS V14.00,2013-01-20 22:13:00,
2013-01-20 16:18:00,-0.6,-7.7,30.18,SW,216,2.8,2.8,71,0.00,,---,0.00,VWS V14.00,2013-01-20 22:18:00,
2013-01-20 16:23:00,-0.6,-7.7,30.18,SSW,202,0.0,0.0,71,0.00,,---,0.00,VWS V14.00,2013-01-20 22:23:00,
2013-01-20 16:28:00,-0.9,-8.1,30.18,NE,38,2.8,2.8,71,0.00,,---,0.00,VWS V14.00,2013-01-20 22:28:00,
2013-01-20 16:33:00,-1.1,-8.2,30.18,NE,37,0.0,0.0,71,0.00,,---,0.00,VWS V14.00,2013-01-20 22:33:00,
2013-01-20 16:38:00,-1.3,-8.4,30.18,NW,318,0.0,0.0,71,0.00,,---,0.00,VWS V14.00,2013-01-20 22:38:00,
2013-01-20 16:43:00,-1.5,-8.6,30.18,NNW,342,0.0,0.0,71,0.00,,---,0.00,VWS V14.00,2013-01-20 22:43:00,
2013-01-20 16:48:00,-1.8,-8.9,30.18,NNW,342,2.8,2.8,71,0.00,,---,0.00,VWS V14.00,2013-01-20 22:48:00,
2013-01-20 16:53:00,-2.0,-9.1,30.18,North,0,5.0,5.0,71,0.00,,---,0.00,VWS V14.00,2013-01-20 22:53:00,
2013-01-20 16:58:00,-2.2,-9.3,30.18,NNW,337,2.8,2.8,71,0.00,,---,0.00,VWS V14.00,2013-01-20 22:58:00,
2013-01-20 17:03:00,-2.6,-9.6,30.18,NW,309,0.0,0.0,71,0.00,,---,0.00,VWS V14.00,2013-01-20 23:03:00,
2013-01-20 17:08:00,-2.6,-9.6,30.18,WNW,302,0.0,0.0,71,0.00,,---,0.00,VWS V14.00,2013-01-20 23:08:00,
2013-01-20 17:13:00,-2.9,-10.0,30.18,WNW,302,0.0,0.0,71,0.00,,---,0.00,VWS V14.00,2013-01-20 23:13:00,
2013-01-20 17:18:00,-3.1,-10.1,30.18,North,357,2.8,2.8,71,0.00,,---,0.00,VWS V14.00,2013-01-20 23:18:00,
2013-01-20 17:23:00,-3.3,-10.3,30.18,WNW,302,0.0,0.0,71,0.00,,---,0.00,VWS V14.00,2013-01-20 23:23:00,
2013-01-20 17:28:00,-3.5,-10.5,30.18,WNW,303,0.0,0.0,71,0.00,,---,0.00,VWS V14.00,2013-01-20 23:28:00,
2013-01-20 17:33:00,-3.6,-10.7,30.18,WNW,302,0.0,0.0,71,0.00,,---,0.00,VWS V14.00,2013-01-20 23:33:00,
2013-01-20 17:38:00,-3.8,-10.8,30.18,WNW,303,0.0,0.0,71,0.00,,---,0.00,VWS V14.00,2013-01-20 23:38:00,
2013-01-20 17:43:00,-3.8,-10.8,30.18,WNW,303,0.0,0.0,71,0.00,,---,0.00,VWS V14.00,2013-01-20 23:43:00,
2013-01-20 17:48:00,-3.8,-10.8,30.18,WNW,303,0.0,0.0,71,0.00,,---,0.00,VWS V14.00,2013-01-20 23:48:00,
2013-01-20 17:53:00,-4.0,-11.0,30.18,WNW,303,0.0,0.0,71,0.00,,---,0.00,VWS V14.00,2013-01-20 23:53:00,
2013-01-20 17:58:00,-4.0,-11.0,30.18,SW,224,0.0,0.0,71,0.00,,---,0.00,VWS V14.00,2013-01-20 23:58:00,
2013-01-20 18:03:00,-4.2,-11.2,30.18,ESE,107,0.0,0.0,71,0.00,,---,0.00,VWS V14.00,2013-01-21 00:03:00,
2013-01-20 18:08:00,-4.2,-11.2,30.18,SW,226,0.0,0.0,71,0.00,,---,0.00,VWS V14.00,2013-01-21 00:08:00,
2013-01-20 18:13:00,-4.2,-11.2,30.18,SSW,209,2.8,2.8,71,0.00,,---,0.00,VWS V14.00,2013-01-21 00:13:00,
2013-01-20 18:19:00,-4.4,-11.4,30.18,West,273,4.5,4.5,71,0.00,,---,0.00,VWS V14.00,2013-01-21 00:19:00,
2013-01-20 18:24:00,-4.4,-11.4,30.18,NNW,334,0.0,0.0,71,0.00,,---,0.00,VWS V14.00,2013-01-21 00:24:00,
2013-01-20 18:29:00,-4.4,-11.4,30.18,ESE,114,0.0,0.0,71,0.00,,---,0.00,VWS V14.00,2013-01-21 00:29:00,
2013-01-20 18:34:00,-4.4,-11.4,30.18,ESE,122,3.4,3.4,71,0.00,,---,0.00,VWS V14.00,2013-01-21 00:34:00,
2013-01-20 18:39:00,-4.4,-11.4,30.18,SE,135,2.8,2.8,71,0.00,,---,0.00,VWS V14.00,2013-01-21 00:39:00,
2013-01-20 18:44:00,-4.4,-11.4,30.18,SE,142,0.0,0.0,71,0.00,,---,0.00,VWS V14.00,2013-01-21 00:44:00,
2013-01-20 18:49:00,-4.4,-11.4,30.15,SSW,201,3.4,3.4,71,0.00,,---,0.00,VWS V14.00,2013-01-21 00:49:00,
2013-01-20 18:54:00,-4.4,-11.4,30.15,SW,223,0.0,0.0,71,0.00,,---,0.00,VWS V14.00,2013-01-21 00:54:00,
2013-01-20 18:59:00,-4.4,-11.4,30.15,South,187,3.4,3.4,71,0.00,,---,0.00,VWS V14.00,2013-01-21 00:59:00,
2013-01-20 19:04:00,-4.4,-11.4,30.15,SSW,202,3.4,3.4,71,0.00,,---,0.00,VWS V14.00,2013-01-21 01:04:00,
2013-01-20 19:09:00,-4.4,-11.4,30.15,South,179,2.8,2.8,71,0.00,,---,0.00,VWS V14.00,2013-01-21 01:09:00,
2013-01-20 19:14:00,-4.4,-11.4,30.15,South,175,5.0,5.0,71,0.00,,---,0.00,VWS V14.00,2013-01-21 01:14:00,
2013-01-20 19:19:00,-4.4,-11.4,30.15,SSW,207,0.0,0.0,71,0.00,,---,0.00,VWS V14.00,2013-01-21 01:19:00,
2013-01-20 19:24:00,-4.4,-11.4,30.15,South,190,0.0,0.0,71,0.00,,---,0.00,VWS V14.00,2013-01-21 01:24:00,
2013-01-20 19:29:00,-4.4,-11.4,30.15,SSW,196,3.4,3.4,71,0.00,,---,0.00,VWS V14.00,2013-01-21 01:29:00,
2013-01-20 19:34:00,-4.4,-11.4,30.15,SE,126,3.4,3.4,71,0.00,,---,0.00,VWS V14.00,2013-01-21 01:34:00,
2013-01-20 19:39:00,-4.4,-11.4,30.15,East,87,3.9,3.9,71,0.00,,---,0.00,VWS V14.00,2013-01-21 01:39:00,
2013-01-20 19:44:00,-4.4,-11.4,30.15,SW,221,3.9,3.9,71,0.00,,---,0.00,VWS V14.00,2013-01-21 01:44:00,
2013-01-20 19:49:00,-4.4,-11.4,30.15,South,171,0.0,0.0,71,0.00,,---,0.00,VWS V14.00,2013-01-21 01:49:00,
2013-01-20 19:54:00,-4.4,-11.4,30.15,NW,321,0.0,0.0,71,0.00,,---,0.00,VWS V14.00,2013-01-21 01:54:00,
2013-01-20 19:59:00,-4.4,-11.4,30.15,WNW,302,3.4,3.4,71,0.00,,---,0.00,VWS V14.00,2013-01-21 01:59:00,
2013-01-20 20:05:00,-4.4,-11.4,30.15,West,269,3.9,3.9,71,0.00,,---,0.00,VWS V14.00,2013-01-21 02:05:00,
2013-01-20 20:10:00,-4.4,-11.4,30.15,West,273,3.9,3.9,71,0.00,,---,0.00,VWS V14.00,2013-01-21 02:10:00,
2013-01-20 20:15:00,-4.4,-11.4,30.15,South,189,0.0,0.0,71,0.00,,---,0.00,VWS V14.00,2013-01-21 02:15:00,
2013-01-20 20:20:00,-4.4,-11.4,30.15,WNW,299,2.8,2.8,71,0.00,,---,0.00,VWS V14.00,2013-01-21 02:20:00,
2013-01-20 20:25:00,-4.4,-11.4,30.15,NNW,346,3.9,3.9,71,0.00,,---,0.00,VWS V14.00,2013-01-21 02:25:00,
2013-01-20 20:30:00,-4.4,-11.4,30.15,NW,325,5.0,5.0,71,0.00,,---,0.00,VWS V14.00,2013-01-21 02:30:00,
2013-01-20 20:35:00,-4.4,-11.4,30.15,SE,128,4.5,4.5,71,0.00,,---,0.00,VWS V14.00,2013-01-21 02:35:00,
2013-01-20 20:40:00,-4.4,-11.4,30.15,WSW,253,3.4,3.4,71,0.00,,---,0.00,VWS V14.00,2013-01-21 02:40:00,
2013-01-20 20:45:00,-4.4,-11.4,30.15,WNW,291,3.9,3.9,71,0.00,,---,0.00,VWS V14.00,2013-01-21 02:45:00,
2013-01-20 20:50:00,-4.4,-11.4,30.15,NW,316,3.9,3.9,71,0.00,,---,0.00,VWS V14.00,2013-01-21 02:50:00,
2013-01-20 20:55:00,-4.4,-11.4,30.15,NNE,18,4.5,4.5,71,0.00,,---,0.00,VWS V14.00,2013-01-21 02:55:00,
2013-01-20 21:00:00,-4.4,-11.4,30.15,ENE,64,2.8,2.8,71,0.00,,---,0.00,VWS V14.00,2013-01-21 03:00:00,
2013-01-20 21:05:00,-4.4,-11.4,30.15,NNE,25,3.4,3.4,71,0.00,,---,0.00,VWS V14.00,2013-01-21 03:05:00,
2013-01-20 21:10:00,-4.5,-11.5,30.15,SSW,204,0.0,0.0,71,0.00,,---,0.00,VWS V14.00,2013-01-21 03:10:00,
2013-01-20 21:15:00,-4.5,-11.5,30.15,WSW,238,3.4,3.4,71,0.00,,---,0.00,VWS V14.00,2013-01-21 03:15:00,
2013-01-20 21:20:00,-4.7,-11.7,30.12,SSW,202,3.4,3.4,71,0.00,,---,0.00,VWS V14.00,2013-01-21 03:20:00,
2013-01-20 21:25:00,-4.7,-11.7,30.12,South,169,3.4,3.4,71,0.00,,---,0.00,VWS V14.00,2013-01-21 03:25:00,
2013-01-20 21:30:00,-4.7,-11.7,30.12,NW,313,0.0,0.0,71,0.00,,---,0.00,VWS V14.00,2013-01-21 03:30:00,
2013-01-20 21:35:00,-4.9,-11.9,30.12,South,183,3.9,3.9,71,0.00,,---,0.00,VWS V14.00,2013-01-21 03:35:00,
2013-01-20 21:40:00,-4.9,-11.9,30.12,SSE,154,3.4,3.4,71,0.00,,---,0.00,VWS V14.00,2013-01-21 03:40:00,
2013-01-20 21:45:00,-5.1,-12.1,30.12,WNW,301,6.7,6.7,71,0.00,,---,0.00,VWS V14.00,2013-01-21 03:45:00,
2013-01-20 21:50:00,-5.1,-12.1,30.12,SW,219,0.0,0.0,71,0.00,,---,0.00,VWS V14.00,2013-01-21 03:50:00,
2013-01-20 21:55:00,-5.1,-12.1,30.12,NW,313,6.7,6.7,71,0.00,,---,0.00,VWS V14.00,2013-01-21 03:55:00,
2013-01-20 22:00:00,-5.1,-12.1,30.12,WNW,300,3.4,3.4,71,0.00,,---,0.00,VWS V14.00,2013-01-21 04:00:00,
2013-01-20 22:05:00,-5.3,-12.2,30.12,WNW,297,3.9,3.9,71,0.00,,---,0.00,VWS V14.00,2013-01-21 04:05:00,
2013-01-20 22:10:00,-5.3,-12.2,30.12,WSW,241,3.4,3.4,71,0.00,,---,0.00,VWS V14.00,2013-01-21 04:10:00,
2013-01-20 22:15:00,-5.3,-12.2,30.12,South,183,0.0,0.0,71,0.00,,---,0.00,VWS V14.00,2013-01-21 04:15:00,
2013-01-20 22:20:00,-5.3,-12.2,30.12,West,265,4.5,4.5,71,0.00,,---,0.00,VWS V14.00,2013-01-21 04:20:00,
2013-01-20 22:25:00,-5.4,-12.4,30.12,ESE,116,3.4,3.4,71,0.00,,---,0.00,VWS V14.00,2013-01-21 04:25:00,
2013-01-20 22:30:00,-5.4,-12.4,30.12,North,8,0.0,0.0,71,0.00,,---,0.00,VWS V14.00,2013-01-21 04:30:00,
2013-01-20 22:35:00,-5.4,-12.4,30.12,NNW,344,0.0,0.0,71,0.00,,---,0.00,VWS V14.00,2013-01-21 04:35:00,
2013-01-20 22:40:00,-5.6,-12.6,30.12,WSW,258,3.9,3.9,71,0.00,,---,0.00,VWS V14.00,2013-01-21 04:40:00,
2013-01-20 22:45:00,-5.6,-12.6,30.12,WNW,294,0.0,0.0,71,0.00,,---,0.00,VWS V14.00,2013-01-21 04:45:00,
2013-01-20 22:50:00,-5.6,-12.6,30.12,NNE,25,3.4,3.4,71,0.00,,---,0.00,VWS V14.00,2013-01-21 04:50:00,
2013-01-20 22:55:00,-5.6,-12.6,30.12,SW,236,2.8,2.8,71,0.00,,---,0.00,VWS V14.00,2013-01-21 04:55:00,
2013-01-20 23:01:00,-5.6,-12.6,30.12,SSW,204,0.0,0.0,71,0.00,,---,0.00,VWS V14.00,2013-01-21 05:01:00,
2013-01-20 23:03:00,-5.6,-12.6,30.12,SSW,199,3.4,3.4,71,0.00,,---,0.00,VWS V14.00,2013-01-21 05:03:00,
2013-01-20 23:08:00,-5.8,-12.8,30.12,SW,226,3.4,3.4,71,0.00,,---,0.00,VWS V14.00,2013-01-21 05:08:00,
2013-01-20 23:13:00,-5.8,-12.8,30.12,SSW,199,2.8,2.8,71,0.00,,---,0.00,VWS V14.00,2013-01-21 05:13:00,
2013-01-20 23:18:00,-6.0,-12.9,30.12,SSW,202,3.9,3.9,71,0.00,,---,0.00,VWS V14.00,2013-01-21 05:18:00,
2013-01-20 23:23:00,-6.0,-12.9,30.12,SSW,199,2.8,2.8,71,0.00,,---,0.00,VWS V14.00,2013-01-21 05:23:00,
2013-01-20 23:28:00,-6.0,-12.9,30.12,South,189,3.4,3.4,71,0.00,,---,0.00,VWS V14.00,2013-01-21 05:28:00,
2013-01-20 23:33:00,-6.2,-13.1,30.12,South,189,0.0,0.0,71,0.00,,---,0.00,VWS V14.00,2013-01-21 05:33:00,
2013-01-20 23:38:00,-6.0,-12.9,30.12,South,191,0.0,0.0,71,0.00,,---,0.00,VWS V14.00,2013-01-21 05:38:00,
2013-01-20 23:43:00,-6.0,-12.9,30.12,SSW,192,0.0,0.0,71,0.00,,---,0.00,VWS V14.00,2013-01-21 05:43:00,
2013-01-20 23:48:00,-6.0,-12.9,30.09,South,174,3.4,3.4,71,0.00,,---,0.00,VWS V14.00,2013-01-21 05:48:00,
2013-01-20 23:53:00,-6.2,-13.1,30.09,West,270,3.4,3.4,71,0.00,,---,0.00,VWS V14.00,2013-01-21 05:53:00,
2013-01-20 23:58:00,-6.2,-13.1,30.09,South,179,2.8,2.8,71,0.00,,---,0.00,VWS V14.00,2013-01-21 05:58:00,